Hourly Weather Prutz

Today, 11 July, Saturday

Time Temperature Precipitation Wind Pressure Humidity
00:00 +12°C° 0.6 mm 0 mps 635 mmHg 95%
01:00 +12°C° 0.6 mm 0 mps 635 mmHg 96%
02:00 +11°C° 0.4 mm 0 mps 635 mmHg 96%
03:00 +11°C° 0.4 mm 0 mps 634 mmHg 97%
04:00 +12°C° 0.4 mm 1 mps 634 mmHg 97%
05:00 +12°C° 2 mm 1 mps 634 mmHg 97%
06:00 +12°C° 2 mm 2 mps 635 mmHg 96%
07:00 +12°C° 2 mm 2 mps 635 mmHg 96%
08:00 +12°C° 1.7 mm 2 mps 635 mmHg 95%
09:00 +10°C° 1.7 mm 2 mps 635 mmHg 95%
10:00 +10°C° 1.7 mm 2 mps 635 mmHg 94%
11:00 +10°C° 1.4 mm 2 mps 635 mmHg 93%
12:00 +11°C° 1.4 mm 1 mps 636 mmHg 92%
13:00 +11°C° 1.4 mm 1 mps 636 mmHg 91%
14:00 +12°C° 0.8 mm 1 mps 636 mmHg 88%
15:00 +13°C° 0.8 mm 1 mps 636 mmHg 84%
16:00 +14°C° 0.8 mm 2 mps 637 mmHg 81%
17:00 +13°C° 0.2 mm 2 mps 637 mmHg 84%
18:00 +13°C° 0.2 mm 2 mps 637 mmHg 87%
19:00 +12°C° 0.2 mm 2 mps 637 mmHg 91%
20:00 +10°C° 0 mm 2 mps 637 mmHg 92%
21:00 +10°C° 0 mm 2 mps 637 mmHg 94%
22:00 +10°C° 0 mm 1 mps 637 mmHg 96%
23:00 +10°C° 0 mm 1 mps 637 mmHg 95%

Tomorrow, 12 July, Sunday

Time Temperature Precipitation Wind Pressure Humidity
00:00 +9°C° 0 mm 1 mps 637 mmHg 95%
01:00 +9°C° 0 mm 1 mps 637 mmHg 94%
02:00 +8°C° 0 mm 1 mps 637 mmHg 95%
03:00 +6°C° 0 mm 0 mps 636 mmHg 95%
04:00 +5°C° 0 mm 0 mps 636 mmHg 95%
05:00 +6°C° 0 mm 0 mps 637 mmHg 91%
06:00 +8°C° 0 mm 0 mps 637 mmHg 86%
07:00 +11°C° 0 mm 1 mps 638 mmHg 81%
08:00 +12°C° 0 mm 1 mps 638 mmHg 72%
09:00 +14°C° 0 mm 1 mps 639 mmHg 63%
10:00 +16°C° 0 mm 1 mps 640 mmHg 53%
11:00 +17°C° 0 mm 2 mps 640 mmHg 50%
12:00 +18°C° 0 mm 2 mps 640 mmHg 46%
13:00 +19°C° 0 mm 2 mps 640 mmHg 43%
14:00 +19°C° 0 mm 2 mps 640 mmHg 45%
15:00 +19°C° 0 mm 3 mps 640 mmHg 47%
16:00 +19°C° 0 mm 3 mps 640 mmHg 49%
17:00 +18°C° 0 mm 2 mps 640 mmHg 57%
18:00 +16°C° 0 mm 2 mps 639 mmHg 65%
19:00 +15°C° 0 mm 2 mps 639 mmHg 73%
20:00 +13°C° 0 mm 1 mps 638 mmHg 80%
21:00 +11°C° 0 mm 1 mps 638 mmHg 88%
22:00 +7°C° 0 mm 0 mps 637 mmHg 95%
23:00 +7°C° 0 mm 0 mps 637 mmHg 95%

Day after tomorrow, 13 July, Monday

Time Temperature Precipitation Wind Pressure Humidity
00:00 +8°C° 0 mm 1 mps 637 mmHg 94%
01:00 +8°C° 0 mm 1 mps 637 mmHg 94%
02:00 +9°C° 0 mm 1 mps 637 mmHg 93%
03:00 +9°C° 0 mm 1 mps 636 mmHg 93%
04:00 +9°C° 0 mm 1 mps 636 mmHg 93%
05:00 +10°C° 0 mm 1 mps 637 mmHg 87%
06:00 +12°C° 0 mm 1 mps 637 mmHg 82%
07:00 +12°C° 0 mm 0 mps 638 mmHg 77%
08:00 +15°C° 0 mm 1 mps 638 mmHg 68%
09:00 +18°C° 0 mm 1 mps 639 mmHg 60%
10:00 +20°C° 0 mm 1 mps 639 mmHg 51%
11:00 +19°C° 0 mm 2 mps 639 mmHg 47%
12:00 +20°C° 0 mm 2 mps 639 mmHg 44%
13:00 +21°C° 0 mm 2 mps 639 mmHg 41%
14:00 +20°C° 0.3 mm 2 mps 639 mmHg 47%
15:00 +19°C° 0.3 mm 3 mps 638 mmHg 53%
16:00 +19°C° 0.3 mm 3 mps 637 mmHg 60%
17:00 +17°C° 0.8 mm 2 mps 637 mmHg 68%
18:00 +16°C° 0.8 mm 2 mps 637 mmHg 76%
19:00 +15°C° 0.8 mm 1 mps 637 mmHg 84%
20:00 +14°C° 0.3 mm 1 mps 636 mmHg 88%
21:00 +12°C° 0.3 mm 1 mps 636 mmHg 91%
22:00 +9°C° 0.3 mm 0 mps 635 mmHg 95%
23:00 +9°C° 0 mm 0 mps 635 mmHg 95%

14 July, Tuesday

Time Temperature Precipitation Wind Pressure Humidity
00:00 +8°C° 0 mm 0 mps 635 mmHg 96%
01:00 +8°C° 0 mm 0 mps 634 mmHg 96%
02:00 +8°C° 0 mm 0 mps 634 mmHg 96%
03:00 +7°C° 0 mm 0 mps 634 mmHg 96%
04:00 +7°C° 0 mm 0 mps 633 mmHg 96%
05:00 +9°C° 0 mm 0 mps 634 mmHg 92%
06:00 +10°C° 0 mm 0 mps 635 mmHg 88%
07:00 +12°C° 0 mm 0 mps 635 mmHg 84%
08:00 +13°C° 0.1 mm 0 mps 636 mmHg 77%
09:00 +15°C° 0.1 mm 1 mps 636 mmHg 70%
10:00 +18°C° 0.1 mm 1 mps 636 mmHg 62%
11:00 +18°C° 0.2 mm 1 mps 636 mmHg 59%
12:00 +18°C° 0.2 mm 2 mps 636 mmHg 56%
13:00 +19°C° 0.2 mm 2 mps 636 mmHg 53%
14:00 +18°C° 0.5 mm 2 mps 636 mmHg 58%
15:00 +18°C° 0.5 mm 2 mps 636 mmHg 63%
16:00 +17°C° 0.5 mm 2 mps 635 mmHg 68%
17:00 +16°C° 0.7 mm 2 mps 635 mmHg 74%
18:00 +15°C° 0.7 mm 2 mps 635 mmHg 80%
19:00 +14°C° 0.7 mm 1 mps 635 mmHg 86%
20:00 +13°C° 0.1 mm 1 mps 634 mmHg 89%
21:00 +11°C° 0.1 mm 1 mps 634 mmHg 91%
22:00 +9°C° 0.1 mm 0 mps 634 mmHg 94%
23:00 +9°C° 0 mm 0 mps 634 mmHg 94%

15 July, Wednesday

Time Temperature Precipitation Wind Pressure Humidity
00:00 +9°C° 0 mm 0 mps 634 mmHg 94%
01:00 +8°C° 0 mm 0 mps 634 mmHg 94%
02:00 +8°C° 0 mm 0 mps 633 mmHg 94%
03:00 +8°C° 0 mm 0 mps 633 mmHg 94%
04:00 +8°C° 0 mm 0 mps 633 mmHg 94%
05:00 +9°C° 0 mm 0 mps 634 mmHg 93%
06:00 +10°C° 0 mm 0 mps 634 mmHg 91%
07:00 +12°C° 0 mm 0 mps 635 mmHg 89%
08:00 +13°C° 0.3 mm 1 mps 635 mmHg 85%
09:00 +14°C° 0.3 mm 1 mps 635 mmHg 82%
10:00 +15°C° 0.3 mm 1 mps 635 mmHg 78%
11:00 +16°C° 0.3 mm 1 mps 636 mmHg 74%
12:00 +17°C° 0.3 mm 2 mps 636 mmHg 69%
13:00 +18°C° 0.3 mm 2 mps 637 mmHg 65%
14:00 +18°C° 0.2 mm 2 mps 636 mmHg 67%
15:00 +17°C° 0.2 mm 2 mps 636 mmHg 68%
16:00 +17°C° 0.2 mm 2 mps 636 mmHg 70%
17:00 +16°C° 0.1 mm 2 mps 636 mmHg 76%
18:00 +15°C° 0.1 mm 1 mps 635 mmHg 82%
19:00 +14°C° 0.1 mm 1 mps 635 mmHg 87%
20:00 +13°C° 0.1 mm 1 mps 635 mmHg 89%
21:00 +13°C° 0.1 mm 1 mps 635 mmHg 90%
22:00 +12°C° 0.1 mm 1 mps 636 mmHg 91%
23:00 +12°C° 0 mm 1 mps 636 mmHg 92%

16 July, Thursday

Time Temperature Precipitation Wind Pressure Humidity
00:00 +11°C° 0 mm 1 mps 635 mmHg 92%
01:00 +10°C° 0 mm 0 mps 635 mmHg 93%
02:00 +10°C° 0 mm 0 mps 635 mmHg 94%
03:00 +9°C° 0 mm 0 mps 635 mmHg 95%
04:00 +10°C° 0 mm 1 mps 635 mmHg 96%
05:00 +11°C° 0 mm 1 mps 635 mmHg 93%
06:00 +12°C° 0 mm 1 mps 636 mmHg 91%
07:00 +13°C° 0 mm 1 mps 636 mmHg 88%
08:00 +14°C° 0 mm 1 mps 637 mmHg 84%
09:00 +15°C° 0 mm 1 mps 637 mmHg 81%
10:00 +16°C° 0 mm 1 mps 637 mmHg 77%
11:00 +16°C° 0.1 mm 2 mps 637 mmHg 75%
12:00 +17°C° 0.1 mm 2 mps 638 mmHg 72%
13:00 +18°C° 0.1 mm 2 mps 638 mmHg 70%
14:00 +17°C° 0.1 mm 2 mps 637 mmHg 73%
15:00 +17°C° 0.1 mm 2 mps 637 mmHg 75%
16:00 +17°C° 0.1 mm 2 mps 637 mmHg 78%
17:00 +16°C° 0.1 mm 2 mps 637 mmHg 82%
18:00 +15°C° 0.1 mm 2 mps 636 mmHg 85%
19:00 +14°C° 0.1 mm 2 mps 636 mmHg 89%
20:00 +13°C° 0 mm 2 mps 636 mmHg 92%
21:00 +12°C° 0 mm 1 mps 636 mmHg 94%
22:00 +11°C° 0 mm 1 mps 636 mmHg 97%
23:00 +11°C° 0 mm 1 mps 636 mmHg 97%
Show more